DW1234 Weather Reports


time (UTC)temp
C
wind
direction
speed
KPH
gust
KPH
rain 1hr
cm
rain 24hr
cm
rain mn
cm
humidity
%
barometer
mb
20260902204731 37 212 17.7 30.6 0.00 0.00 0.00 48 1011.3
20260902204547 37 180 12.9 30.6 0.00 0.00 0.00 47 1008.3
20260902204304 37 174 17.7 30.6 0.00 0.00 0.00 46 1011.3
20260902203727 37 205 14.5 27.4 0.00 0.00 0.00 47 1011.4
20260902203234 37 193 17.7 33.8 0.00 0.00 0.00 44 1011.3
20260902203037 36 212 17.7 33.8 0.00 0.00 0.00 45 1008.4
20260902202745 37 213 24.1 33.8 0.00 0.00 0.00 43 1011.3
20260902202227 37 203 22.5 32.2 0.00 0.00 0.00 43 1011.4
20260902201739 37 195 19.3 29.0 0.00 0.00 0.00 44 1011.5
20260902201550 37 163 17.7 25.7 0.00 0.00 0.00 44 1008.5
20260902201251 37 190 17.7 29.0 0.00 0.00 0.00 47 1011.5
20260902200731 36 178 16.1 35.4 0.00 0.00 0.00 46 1011.5
20260902200242 36 225 14.5 35.4 0.00 0.00 0.00 46 1011.6
20260902200025 36 190 20.9 35.4 0.00 0.00 0.00 45 1008.6
20260902195728 36 196 19.3 33.8 0.00 0.00 0.00 44 1011.6
20260902195239 36 213 22.5 33.8 0.00 0.00 0.00 44 1011.7
20260902194809 36 177 19.3 33.8 0.00 0.00 0.00 46 1011.7
20260902194557 36 179 19.3 33.8 0.00 0.00 0.00 45 1008.7
20260902194233 36 214 19.3 33.8 0.00 0.00 0.00 47 1011.7
20260902193743 36 188 20.9 33.8 0.00 0.00 0.00 47 1011.7
20260902193226 35 174 19.3 27.4 0.00 0.00 0.00 51 1011.8
20260902193055 35 219 16.1 24.1 0.00 0.00 0.00 50 1008.8
20260902192756 35 211 14.5 29.0 0.00 0.00 0.00 48 1011.9
20260902192243 35 185 14.5 29.0 0.00 0.00 0.00 49 1011.9
20260902191724 36 205 16.1 27.4 0.00 0.00 0.00 48 1011.9
20260902191544 35 175 12.9 22.5 0.00 0.00 0.00 49 1009.0
20260902191257 36 186 12.9 22.5 0.00 0.00 0.00 49 1011.9
20260902190747 35 192 16.1 27.4 0.00 0.00 0.00 48 1012.0
20260902190229 35 200 12.9 32.2 0.00 0.00 0.00 49 1012.0
20260902190015 35 202 17.7 32.2 0.00 0.00 0.00 48 1009.1
20260902185831 36 186 19.3 32.2 0.00 0.00 0.00 48 1012.1
20260902185321 36 211 12.9 29.0 0.00 0.00 0.00 48 1012.2
20260902184746 36 196 19.3 29.0 0.00 0.00 0.00 46 1012.2
20260902184509 35 211 19.3 30.6 0.00 0.00 0.00 47 1009.2
20260902184236 36 161 19.3 30.6 0.00 0.00 0.00 47 1012.2
20260902183745 36 171 17.7 30.6 0.00 0.00 0.00 48 1012.3
20260902183230 36 200 19.3 35.4 0.00 0.00 0.00 49 1012.3
20260902183017 35 182 20.9 35.4 0.00 0.00 0.00 47 1009.3
20260902182801 36 204 22.5 35.4 0.00 0.00 0.00 47 1012.3
20260902182307 36 191 19.3 30.6 0.00 0.00 0.00 48 1012.3
20260902181728 35 217 17.7 35.4 0.00 0.00 0.00 48 1012.4
20260902181540 35 211 19.3 35.4 0.00 0.00 0.00 45 1009.4
20260902181241 36 202 24.1 35.4 0.00 0.00 0.00 45 1012.4
20260902180722 35 157 22.5 33.8 0.00 0.00 0.00 46 1012.4
20260902180234 35 202 19.3 33.8 0.00 0.00 0.00 48 1012.4
20260902180030 35 189 20.9 33.8 0.00 0.00 0.00 49 1009.4
20260902175745 35 207 16.1 30.6 0.00 0.00 0.00 50 1012.5
20260902175226 35 200 19.3 35.4 0.00 0.00 0.00 48 1012.5
20260902174733 34 215 24.1 35.4 0.00 0.00 0.00 48 1012.5
20260902174536 33 211 20.9 38.6 0.00 0.00 0.00 50 1009.7
20260902174246 34 194 20.9 29.0 0.00 0.00 0.00 49 1012.7
20260902173727 34 209 14.5 25.7 0.00 0.00 0.00 52 1012.7
20260902173238 34 178 16.1 32.2 0.00 0.00 0.00 50 1012.8
20260902173035 34 204 17.7 32.2 0.00 0.00 0.00 50 1009.9
20260902172749 34 186 17.7 32.2 0.00 0.00 0.00 50 1012.8
20260902172232 35 198 16.1 29.0 0.00 0.00 0.00 49 1012.8
20260902171744 34 173 16.1 24.1 0.00 0.00 0.00 51 1013.0
20260902171519 34 184 14.5 24.1 0.00 0.00 0.00 51 1010.1
20260902171234 34 202 12.9 24.1 0.00 0.00 0.00 51 1013.0
20260902170737 34 186 12.9 27.4 0.00 0.00 0.00 50 1013.0
20260902170248 34 186 19.3 29.0 0.00 0.00 0.00 51 1012.9
20260902170013 33 173 17.7 29.0 0.00 0.00 0.00 51 1010.0
20260902165732 33 214 16.1 29.0 0.00 0.00 0.00 50 1012.9
20260902165308 33 171 19.3 25.7 0.00 0.00 0.00 53 1012.9
20260902164722 33 172 16.1 25.7 0.00 0.00 0.00 52 1012.9
20260902164551 33 159 16.1 25.7 0.00 0.00 0.00 54 1010.1
20260902164236 33 212 17.7 29.0 0.00 0.00 0.00 54 1013.0
20260902163747 33 209 19.3 29.0 0.00 0.00 0.00 51 1013.0
20260902163225 33 198 17.7 25.7 0.00 0.00 0.00 53 1013.0
20260902163051 33 200 14.5 24.1 0.00 0.00 0.00 55 1010.2
20260902162735 33 146 16.1 25.7 0.00 0.00 0.00 52 1013.0
20260902162307 32 194 17.7 25.7 0.00 0.00 0.00 55 1013.0
20260902161727 32 173 14.5 27.4 0.00 0.00 0.00 57 1013.0
20260902161527 32 188 14.5 27.4 0.00 0.00 0.00 55 1010.2
20260902161240 32 215 14.5 25.7 0.00 0.00 0.00 58 1013.0
20260902160749 32 211 12.9 22.5 0.00 0.00 0.00 60 1013.1
20260902160232 31 150 14.5 19.3 0.00 0.00 0.00 60 1013.1
20260902160036 31 201 9.7 17.7 0.00 0.00 0.00 60 1010.2
20260902155738 31 200 14.5 17.7 0.00 0.00 0.00 60 1013.1
20260902155221 31 181 12.9 17.7 0.00 0.00 0.00 59 1013.2
20260902154731 31 181 11.3 20.9 0.00 0.00 0.00 58 1013.2
20260902154539 31 202 9.7 20.9 0.00 0.00 0.00 59 1010.4
20260902154244 31 153 11.3 20.9 0.00 0.00 0.00 59 1013.2
20260902153725 31 202 12.9 22.5 0.00 0.00 0.00 58 1013.2
20260902153255 31 181 16.1 22.5 0.00 0.00 0.00 60 1013.2
20260902153011 30 167 16.1 24.1 0.00 0.00 0.00 60 1010.3
20260902152806 30 193 14.5 24.1 0.00 0.00 0.00 63 1013.2
20260902152224 30 202 14.5 19.3 0.00 0.00 0.00 62 1013.2
20260902151736 30 148 12.9 22.5 0.00 0.00 0.00 64 1013.3
20260902151539 29 173 14.5 24.1 0.00 0.00 0.00 63 1010.4
20260902151308 29 167 14.5 24.1 0.00 0.00 0.00 62 1013.3
20260902150728 29 163 16.1 24.1 0.00 0.00 0.00 62 1013.1
20260902150240 28 164 16.1 22.5 0.00 0.00 0.00 62 1013.2
20260902150056 28 180 14.5 22.5 0.00 0.00 0.00 62 1010.4
20260902145724 28 169 14.5 20.9 0.00 0.00 0.00 63 1013.3
20260902145236 27 161 11.3 16.1 0.00 0.00 0.00 66 1013.1
20260902144743 27 174 12.9 16.1 0.00 0.00 0.00 70 1013.2
20260902144555 26 176 9.7 16.1 0.00 0.00 0.00 70 1010.3
20260902144235 26 174 12.9 17.7 0.00 0.00 0.00 72 1013.2
20260902143745 26 167 9.7 16.1 0.00 0.00 0.00 70 1013.0
20260902143228 26 147 9.7 16.1 0.00 0.00 0.00 71 1013.2
20260902143040 26 142 9.7 16.1 0.00 0.00 0.00 71 1010.3
20260902142739 26 175 8.0 14.5 0.00 0.00 0.00 70 1013.2
20260902142311 26 183 11.3 17.7 0.00 0.00 0.00 69 1013.2
20260902141731 26 172 12.9 19.3 0.00 0.00 0.00 69 1013.2
20260902141526 26 171 12.9 19.3 0.00 0.00 0.00 69 1010.3
20260902141241 26 145 16.1 19.3 0.00 0.00 0.00 69 1013.2
20260902140723 26 172 8.0 14.5 0.00 0.00 0.00 68 1013.5
20260902140235 27 167 8.0 17.7 0.00 0.00 0.00 67 1013.5
20260902140028 26 202 8.0 17.7 0.00 0.00 0.00 67 1010.7
20260902135808 27 165 11.3 19.3 0.00 0.00 0.00 66 1013.3
20260902135229 27 180 11.3 16.1 0.00 0.00 0.00 65 1013.4
20260902134800 27 176 11.3 14.5 0.00 0.00 0.00 64 1013.5
20260902134540 27 180 8.0 11.3 0.00 0.00 0.00 64 1010.7
20260902134224 27 151 9.7 12.9 0.00 0.00 0.00 64 1013.4
20260902133729 27 177 8.0 11.3 0.00 0.00 0.00 66 1013.5
20260902133302 27 146 4.8 8.0 0.00 0.00 0.00 69 1013.7
20260902133024 26 146 3.2 8.0 0.00 0.00 0.00 70 1010.9
20260902132723 26 146 4.8 6.4 0.00 0.00 0.00 70 1013.7
20260902132233 26 146 3.2 6.4 0.00 0.00 0.00 71 1013.8
20260902131745 25 146 3.2 6.4 0.00 0.00 0.00 71 1013.9
20260902131521 25 146 1.6 6.4 0.00 0.00 0.00 72 1011.1
20260902131228 25 146 3.2 6.4 0.00 0.00 0.00 72 1013.9
20260902130757 25 146 1.6 14.5 0.00 0.00 0.00 73 1013.9
20260902130303 24 146 4.8 14.5 0.00 0.00 0.00 74 1013.5
20260902130035 24 144 9.7 14.5 0.00 0.00 0.00 73 1010.6
20260902125724 24 136 4.8 8.0 0.00 0.00 0.00 73 1013.5
20260902125236 23 125 4.8 9.7 0.00 0.00 0.00 73 1013.7
20260902124749 23 98 4.8 9.7 0.00 0.00 0.00 74 1013.6
20260902124508 23 101 1.6 6.4 0.00 0.00 0.00 74 1010.9
20260902124233 23 101 3.2 6.4 0.00 0.00 0.00 74 1013.7
20260902123802 23 61 4.8 4.8 0.00 0.00 0.00 74 1013.7
20260902123222 23 60 3.2 8.0 0.00 0.00 0.00 74 1013.5
20260902123040 23 60 1.6 8.0 0.00 0.00 0.00 74 1010.7
20260902122733 23 61 4.8 8.0 0.00 0.00 0.00 74 1013.4
20260902122244 23 146 3.2 6.4 0.00 0.00 0.00 73 1013.4
20260902121736 23 146 3.2 6.4 0.00 0.00 0.00 73 1013.3
20260902121530 23 146 1.6 6.4 0.00 0.00 0.00 73 1010.5
20260902121246 23 146 3.2 6.4 0.00 0.00 0.00 72 1013.2
20260902120727 23 133 3.2 11.3 0.00 0.00 0.00 72 1013.2
20260902120239 23 128 4.8 12.9 0.00 0.00 0.00 72 1013.1
20260902120023 23 130 4.8 12.9 0.00 0.00 0.00 72 1010.3
20260902115807 23 103 6.4 12.9 0.00 0.00 0.00 72 1013.0
20260902115228 23 114 4.8 14.5 0.00 0.00 0.00 72 1013.0
20260902114801 23 62 4.8 14.5 0.00 0.00 0.00 72 1013.1
20260902114538 23 50 6.4 14.5 0.00 0.00 0.00 71 1010.4
20260902114312 23 46 6.4 14.5 0.00 0.00 0.00 71 1013.1
20260902113733 24 63 8.0 14.5 0.00 0.00 0.00 70 1013.1
20260902113307 24 46 4.8 6.4 0.00 0.00 0.00 69 1013.0
20260902113059 24 46 3.2 6.4 0.00 0.00 0.00 69 1010.3
20260902113008 24 45 3.2 6.4 0.00 0.00 0.00 69 1010.2
20260902112724 24 21 4.8 6.4 0.00 0.00 0.00 69 1013.0
20260902112235 24 11 3.2 6.4 0.00 0.00 0.00 67 1012.9
20260902111747 24 121 3.2 14.5 0.00 0.00 0.00 68 1012.8
20260902111600 24 155 3.2 14.5 0.00 0.00 0.00 68 1010.1
20260902111231 25 145 6.4 14.5 0.00 0.00 0.00 68 1012.8
20260902110740 25 161 8.0 16.1 0.00 0.00 0.00 67 1012.8
20260902110223 25 180 9.7 17.7 0.00 0.00 0.00 67 1012.8
20260902110107 24 186 11.3 17.7 0.00 0.00 0.00 67 1010.0
20260902110002 24 179 12.9 17.7 0.00 0.00 0.00 67 1010.0
20260902105753 25 165 11.3 17.7 0.00 0.00 0.00 67 1012.7
20260902105239 25 185 11.3 19.3 0.00 0.00 0.00 66 1012.7
20260902104722 25 171 14.5 20.9 0.00 0.00 0.00 66 1012.7
20260902104543 24 154 12.9 20.9 0.00 0.00 0.00 66 1009.9
20260902104234 25 154 12.9 20.9 0.00 0.00 0.00 66 1012.7
20260902103744 25 202 14.5 20.9 0.00 0.00 0.00 66 1012.9
20260902103227 25 183 11.3 17.7 0.00 0.00 0.00 66 1012.9
20260902103043 24 186 12.9 19.3 0.00 0.00 0.00 66 1010.2
20260902102737 25 177 9.7 14.5 0.00 0.00 0.00 66 1013.1
20260902102248 25 163 8.0 12.9 0.00 0.00 0.00 66 1013.2
20260902101731 25 173 8.0 11.3 0.00 0.00 0.00 66 1013.3
20260902101544 24 154 6.4 11.3 0.00 0.00 0.00 66 1010.6
20260902101240 25 173 6.4 11.3 0.00 0.00 0.00 65 1013.4
20260902100721 25 131 4.8 8.0 0.00 0.00 0.00 65 1013.5
20260902100234 25 111 4.8 9.7 0.00 0.00 0.00 64 1013.6
20260902100042 25 80 3.2 9.7 0.00 0.00 0.00 64 1010.8
20260902095807 25 112 4.8 9.7 0.00 0.00 0.00 64 1013.6
20260902095228 25 104 3.2 6.4 0.00 0.00 0.00 63 1013.6
20260902094742 25 219 3.2 6.4 0.00 0.00 0.00 63 1013.5
20260902094519 25 219 3.2 6.4 0.00 0.00 0.00 63 1010.8
20260902094225 25 219 3.2 4.8 0.00 0.00 0.00 63 1013.6
20260902093750 25 219 3.2 4.8 0.00 0.00 0.00 63 1013.6
20260902093241 26 219 0.0 11.3 0.00 0.00 0.00 62 1013.5
20260902093057 25 219 1.6 24.1 0.00 0.00 0.00 62 1010.7
20260902093005 25 219 1.6 24.1 0.00 0.00 0.00 62 1010.7
20260902092724 26 219 3.2 24.1 0.00 0.00 0.00 62 1013.5
20260902092257 25 219 14.5 24.1 0.00 0.00 0.00 62 1013.4
20260902091721 25 199 8.0 33.8 0.00 0.00 0.00 63 1013.4
20260902091550 25 221 6.4 33.8 0.00 0.00 0.00 63 1010.6
20260902091234 25 226 14.5 33.8 0.00 0.00 0.00 63 1013.5
20260902090744 25 220 9.7 33.8 0.00 0.00 0.00 66 1013.4
20260902090227 25 139 9.7 30.6 0.00 0.00 0.00 66 1013.4
20260902090044 24 160 14.5 30.6 0.00 0.00 0.00 66 1010.8
20260902085733 24 326 8.0 20.9 0.00 0.00 0.00 69 1013.3
20260902085244 23 209 4.8 8.0 0.00 0.00 0.00 69 1013.6
20260902084736 23 209 3.2 8.0 0.00 0.00 0.00 69 1013.5
20260902084524 23 209 1.6 8.0 0.00 0.00 0.00 69 1010.7
20260902084248 23 209 4.8 12.9 0.00 0.00 0.00 70 1013.5
20260902083729 24 349 4.8 17.7 0.00 0.00 0.00 70 1013.5
20260902083242 24 337 14.5 17.7 0.00 0.00 0.00 70 1013.7
20260902083058 23 355 12.9 16.1 0.00 0.00 0.00 70 1010.7
20260902083007 23 5 12.9 16.1 0.00 0.00 0.00 70 1010.8
20260902082724 24 339 11.3 16.1 0.00 0.00 0.00 69 1013.6
20260902082230 24 201 3.2 12.9 0.00 0.00 0.00 68 1013.4
20260902081740 24 192 6.4 12.9 0.00 0.00 0.00 68 1013.0
20260902081556 24 200 8.0 12.9 0.00 0.00 0.00 68 1010.1
20260902081224 24 169 8.0 14.5 0.00 0.00 0.00 68 1012.9
20260902080736 25 167 9.7 12.9 0.00 0.00 0.00 68 1012.9
20260902080247 25 182 11.3 14.5 0.00 0.00 0.00 68 1012.8
20260902080109 24 174 9.7 16.1 0.00 0.00 0.00 68 1010.0
20260902075729 25 179 9.7 16.1 0.00 0.00 0.00 68 1012.8
20260902075239 25 174 12.9 16.1 0.00 0.00 0.00 68 1012.7
20260902074748 25 164 12.9 17.7 0.00 0.00 0.00 68 1012.7
20260902074545 24 180 11.3 17.7 0.00 0.00 0.00 68 1009.8
20260902074239 25 183 12.9 17.7 0.00 0.00 0.00 67 1012.7
20260902073749 25 158 11.3 17.7 0.00 0.00 0.00 67 1012.7
20260902073231 25 194 11.3 17.7 0.00 0.00 0.00 67 1012.7
20260902073048 25 194 9.7 17.7 0.00 0.00 0.00 67 1009.8
20260902072743 25 150 11.3 19.3 0.00 0.00 0.00 67 1012.6
20260902072236 25 215 12.9 19.3 0.00 0.00 0.00 67 1012.6
20260902071743 25 190 12.9 25.7 0.00 0.00 0.00 67 1012.6
20260902071516 25 167 9.7 25.7 0.00 0.00 0.00 67 1009.8
20260902071228 25 200 11.3 25.7 0.00 0.00 0.00 67 1012.6
20260902070733 25 181 14.5 20.9 0.00 0.00 0.00 67 1012.6
20260902070222 25 177 11.3 19.3 0.00 0.00 0.00 67 1012.7
20260902070057 25 178 11.3 19.3 0.00 0.00 0.00 67 1010.0
20260902065734 25 202 9.7 16.1 0.00 0.00 0.00 67 1012.7
20260902065244 25 198 11.3 16.1 0.00 0.00 0.00 67 1012.7
20260902064726 25 194 9.7 22.5 0.00 0.00 0.00 67 1012.8
20260902064608 25 207 9.7 22.5 0.00 0.00 0.00 67 1009.9
20260902064240 25 199 12.9 22.5 0.00 0.00 0.00 67 1012.7
20260902063749 25 181 14.5 22.5 0.00 0.00 0.00 66 1012.6
20260902063227 25 189 14.5 17.7 0.00 0.00 0.00 66 1012.6
20260902063051 25 184 12.9 19.3 0.00 0.00 0.00 66 1009.8
20260902062739 25 196 12.9 22.5 0.00 0.00 0.00 66 1012.6
20260902062222 25 205 14.5 22.5 0.00 0.00 0.00 66 1012.5
20260902061733 25 173 12.9 20.9 0.00 0.00 0.00 66 1012.5
20260902061502 25 203 11.3 20.9 0.00 0.00 0.00 66 1009.7
20260902061247 26 164 12.9 20.9 0.00 0.00 0.00 66 1012.5
20260902060730 26 169 12.9 22.5 0.00 0.00 0.00 66 1012.5
20260902060241 26 168 11.3 17.7 0.00 0.00 0.00 66 1012.3
20260902060110 25 159 9.7 16.1 0.00 0.00 0.00 66 1009.6
20260902060000 25 184 11.3 16.1 0.00 0.00 0.00 66 1009.6
20260902055754 26 159 12.9 19.3 0.00 0.00 0.00 66 1012.3
20260902055302 26 182 12.9 17.7 0.00 0.00 0.00 65 1012.3
20260902054722 26 175 12.9 17.7 0.00 0.00 0.00 66 1012.3
20260902054521 26 176 12.9 20.9 0.00 0.00 0.00 65 1009.6
20260902054235 26 184 12.9 20.9 0.00 0.00 0.00 65 1012.3
20260902053744 26 162 14.5 19.3 0.00 0.00 0.00 65 1012.4
20260902053224 26 182 12.9 19.3 0.00 0.00 0.00 65 1012.4
20260902053013 26 163 11.3 19.3 0.00 0.00 0.00 65 1009.6
20260902052754 26 191 12.9 16.1 0.00 0.00 0.00 65 1012.5
20260902052239 26 161 12.9 17.7 0.00 0.00 0.00 65 1012.5
20260902051722 26 150 11.3 16.1 0.00 0.00 0.00 65 1012.6
20260902051552 26 177 11.3 16.1 0.00 0.00 0.00 65 1009.8
20260902051234 26 183 11.3 16.1 0.00 0.00 0.00 65 1012.6
20260902050743 26 174 12.9 16.1 0.00 0.00 0.00 65 1012.6
20260902050226 26 164 11.3 17.7 0.00 0.00 0.00 65 1012.6
20260902050045 26 172 9.7 17.7 0.00 0.00 0.00 65 1009.8
20260902045738 26 166 11.3 17.7 0.00 0.00 0.00 65 1012.5
20260902045248 27 170 12.9 17.7 0.00 0.00 0.00 65 1012.5
20260902044738 27 182 11.3 17.7 0.00 0.00 0.00 65 1012.6
20260902044531 26 165 11.3 17.7 0.00 0.00 0.00 65 1009.8
20260902044246 27 183 12.9 17.7 0.00 0.00 0.00 65 1012.6
20260902043725 27 157 11.3 17.7 0.00 0.00 0.00 65 1012.7
20260902043240 27 184 12.9 19.3 0.00 0.00 0.00 65 1012.6
20260902043034 27 161 11.3 17.7 0.00 0.00 0.00 65 1009.8
20260902042722 27 146 11.3 17.7 0.00 0.00 0.00 65 1012.6
20260902042235 27 181 12.9 16.1 0.00 0.00 0.00 65 1012.6
20260902041746 27 163 11.3 16.1 0.00 0.00 0.00 65 1012.6
20260902041530 27 173 9.7 17.7 0.00 0.00 0.00 65 1009.7
20260902041230 27 185 9.7 17.7 0.00 0.00 0.00 65 1012.6
20260902040736 27 172 12.9 17.7 0.00 0.00 0.00 65 1012.7
20260902040248 27 172 11.3 14.5 0.00 0.00 0.00 65 1012.6
20260902040048 27 146 11.3 16.1 0.00 0.00 0.00 65 1009.9
20260902035738 27 173 9.7 17.7 0.00 0.00 0.00 65 1012.7
20260902035227 27 165 11.3 17.7 0.00 0.00 0.00 65 1012.7
20260902034739 27 167 11.3 14.5 0.00 0.00 0.00 65 1012.7
20260902034542 27 166 11.3 16.1 0.00 0.00 0.00 65 1009.8
20260902034223 27 173 9.7 14.5 0.00 0.00 0.00 65 1012.6
20260902033753 27 182 11.3 14.5 0.00 0.00 0.00 65 1012.6
20260902033240 28 163 11.3 17.7 0.00 0.00 0.00 65 1012.6
20260902033033 27 186 11.3 17.7 0.00 0.00 0.00 65 1009.8
20260902032722 28 172 11.3 17.7 0.00 0.00 0.00 65 1012.5
20260902032254 28 163 11.3 16.1 0.00 0.00 0.00 65 1012.5
20260902031742 28 161 12.9 16.1 0.00 0.00 0.00 65 1012.5
20260902031557 28 160 9.7 16.1 0.00 0.00 0.00 65 1009.6
20260902031226 28 171 11.3 16.1 0.00 0.00 0.00 65 1012.5
20260902030756 28 169 9.7 16.1 0.00 0.00 0.00 65 1012.5
20260902030242 28 155 11.3 17.7 0.00 0.00 0.00 65 1012.5
20260902030034 28 162 11.3 17.7 0.00 0.00 0.00 65 1009.6
20260902025725 28 160 11.3 17.7 0.00 0.00 0.00 65 1012.5
20260902025237 28 174 11.3 16.1 0.00 0.00 0.00 65 1012.3
20260902024722 28 140 12.9 16.1 0.00 0.00 0.00 65 1012.3
20260902024545 28 166 11.3 17.7 0.00 0.00 0.00 65 1009.4
20260902024233 28 172 11.3 17.7 0.00 0.00 0.00 65 1012.3
20260902023743 28 144 11.3 16.1 0.00 0.00 0.00 64 1012.2
20260902023225 28 175 11.3 16.1 0.00 0.00 0.00 64 1012.2
20260902023048 28 163 9.7 14.5 0.00 0.00 0.00 64 1009.2
20260902022736 28 169 9.7 16.1 0.00 0.00 0.00 64 1012.1
20260902022243 29 167 9.7 17.7 0.00 0.00 0.00 64 1012.0
20260902021725 29 176 11.3 17.7 0.00 0.00 0.00 63 1011.9
20260902021613 28 171 9.7 16.1 0.00 0.00 0.00 63 1008.9
20260902021237 29 163 11.3 16.1 0.00 0.00 0.00 63 1011.8
20260902020747 29 165 9.7 14.5 0.00 0.00 0.00 62 1011.8
20260902020230 30 164 9.7 14.5 0.00 0.00 0.00 62 1011.8
20260902020056 29 167 8.0 14.5 0.00 0.00 0.00 62 1008.8
20260902015741 30 146 9.7 12.9 0.00 0.00 0.00 61 1011.7
20260902015222 30 173 9.7 12.9 0.00 0.00 0.00 61 1011.6
20260902014733 30 152 8.0 14.5 0.00 0.00 0.00 60 1011.5
20260902014558 30 156 6.4 14.5 0.00 0.00 0.00 60 1008.6
20260902014242 30 171 9.7 14.5 0.00 0.00 0.00 60 1011.5
20260902013723 30 140 8.0 16.1 0.00 0.00 0.00 59 1011.3
20260902013236 31 180 11.3 17.7 0.00 0.00 0.00 59 1011.3
20260902013104 30 165 11.3 16.1 0.00 0.00 0.00 59 1008.3
20260902012746 31 173 9.7 16.1 0.00 0.00 0.00 59 1011.3
20260902012229 31 165 9.7 16.1 0.00 0.00 0.00 58 1011.2
20260902011739 31 163 9.7 14.5 0.00 0.00 0.00 58 1011.3
20260902011600 31 161 8.0 14.5 0.00 0.00 0.00 58 1008.2
20260902011251 31 170 9.7 14.5 0.00 0.00 0.00 58 1011.2
20260902010743 32 161 9.7 12.9 0.00 0.00 0.00 57 1011.2
20260902010222 32 165 9.7 14.5 0.00 0.00 0.00 56 1011.2
20260902010036 32 163 8.0 14.5 0.00 0.00 0.00 56 1008.2
20260902005734 32 149 9.7 14.5 0.00 0.00 0.00 56 1011.2
20260902005244 32 178 11.3 14.5 0.00 0.00 0.00 55 1011.2
20260902004729 32 158 9.7 16.1 0.00 0.00 0.00 55 1011.2
20260902004538 32 180 9.7 14.5 0.00 0.00 0.00 54 1008.3
20260902004243 33 156 11.3 16.1 0.00 0.00 0.00 54 1011.3
20260902003725 33 162 11.3 16.1 0.00 0.00 0.00 53 1011.2
20260902003237 33 163 11.3 14.5 0.00 0.00 0.00 52 1011.3
20260902003044 33 180 9.7 14.5 0.00 0.00 0.00 52 1008.3
20260902002749 34 143 11.3 14.5 0.00 0.00 0.00 52 1011.2
20260902002235 34 156 9.7 14.5 0.00 0.00 0.00 51 1011.2
20260902001746 35 166 8.0 11.3 0.00 0.00 0.00 51 1011.2
20260902001504 35 167 8.0 14.5 0.00 0.00 0.00 51 1008.3
20260902001237 35 157 9.7 14.5 0.00 0.00 0.00 51 1011.3
20260902000747 35 174 9.7 17.7 0.00 0.00 0.00 50 1011.3
20260902000241 35 146 9.7 17.7 0.00 0.00 0.00 50 1011.5
20260902000044 35 178 11.3 17.7 0.00 0.00 0.00 50 1008.5
20260901235722 35 163 9.7 14.5 0.00 0.00 0.00 49 1011.5
20260901235236 36 163 11.3 16.1 0.00 0.00 0.00 49 1011.5
20260901234742 36 166 12.9 16.1 0.00 0.00 0.00 49 1011.6
20260901234554 36 191 9.7 19.3 0.00 0.00 0.00 49 1008.6
20260901234228 36 192 9.7 14.5 0.00 0.00 0.00 49 1011.6
20260901233738 36 182 9.7 12.9 0.00 0.00 0.00 49 1011.6
20260901233250 36 188 8.0 12.9 0.00 0.00 0.00 48 1011.7
20260901233053 36 178 6.4 12.9 0.00 0.00 0.00 49 1008.7
20260901232735 36 190 8.0 14.5 0.00 0.00 0.00 48 1011.6
20260901232248 36 198 9.7 17.7 0.00 0.00 0.00 47 1011.7
20260901231739 36 183 8.0 17.7 0.00 0.00 0.00 47 1011.7
20260901231530 36 165 9.7 17.7 0.00 0.00 0.00 48 1008.8
20260901231224 36 155 8.0 17.7 0.00 0.00 0.00 48 1011.7
20260901230749 36 186 11.3 16.1 0.00 0.00 0.00 47 1011.7
20260901230232 36 184 9.7 16.1 0.00 0.00 0.00 47 1011.7
20260901230032 36 188 11.3 19.3 0.00 0.00 0.00 47 1008.8
20260901225744 36 200 9.7 17.7 0.00 0.00 0.00 47 1011.8
20260901225228 36 199 9.7 16.1 0.00 0.00 0.00 48 1011.8
20260901224758 36 211 11.3 16.1 0.00 0.00 0.00 48 1011.9
20260901224528 36 186 9.7 16.1 0.00 0.00 0.00 48 1009.0
20260901224250 36 197 9.7 20.9 0.00 0.00 0.00 49 1011.9
20260901223732 36 201 11.3 20.9 0.00 0.00 0.00 47 1011.9
20260901223240 36 219 11.3 19.3 0.00 0.00 0.00 48 1011.8
20260901223011 36 179 9.7 19.3 0.00 0.00 0.00 47 1008.9
20260901222723 36 183 12.9 19.3 0.00 0.00 0.00 47 1011.8
20260901222235 36 180 12.9 24.1 0.00 0.00 0.00 47 1011.8
20260901221746 36 179 16.1 24.1 0.00 0.00 0.00 47 1011.8
20260901221513 36 211 12.9 27.4 0.00 0.00 0.00 47 1008.9
20260901221229 36 205 11.3 27.4 0.00 0.00 0.00 47 1011.9
20260901220740 36 166 12.9 22.5 0.00 0.00 0.00 47 1012.0
20260901220223 36 201 12.9 30.6 0.00 0.00 0.00 46 1012.0
20260901220009 36 191 14.5 30.6 0.00 0.00 0.00 45 1009.0
20260901215735 36 207 14.5 30.6 0.00 0.00 0.00 46 1012.1
20260901215306 36 200 14.5 30.6 0.00 0.00 0.00 45 1012.1
20260901214724 36 157 14.5 27.4 0.00 0.00 0.00 46 1012.1
20260901214554 36 178 14.5 27.4 0.00 0.00 0.00 46 1009.2
20260901214238 36 223 14.5 27.4 0.00 0.00 0.00 48 1012.1
20260901213749 36 188 16.1 27.4 0.00 0.00 0.00 47 1012.1
20260901213231 36 213 17.7 27.4 0.00 0.00 0.00 46 1012.2
20260901213055 36 196 16.1 27.4 0.00 0.00 0.00 48 1009.3
20260901212742 36 180 17.7 29.0 0.00 0.00 0.00 47 1012.1
20260901212224 36 191 20.9 32.2 0.00 0.00 0.00 46 1012.2
20260901211731 36 183 20.9 32.2 0.00 0.00 0.00 47 1012.2
20260901211555 36 211 12.9 24.1 0.00 0.00 0.00 47 1009.3
20260901211303 36 190 16.1 27.4 0.00 0.00 0.00 47 1012.3
20260901210723 37 221 17.7 27.4 0.00 0.00 0.00 47 1012.4
20260901210234 37 217 11.3 19.3 0.00 0.00 0.00 49 1012.4
20260901210033 36 180 12.9 19.3 0.00 0.00 0.00 49 1009.6
20260901205745 37 148 12.9 22.5 0.00 0.00 0.00 49 1012.4
20260901205235 37 176 12.9 27.4 0.00 0.00 0.00 49 1012.4